STARLINK-5711, 55471

Orbit data source: Space-Track

STARLINK-5711, 55471 is a payload satellite owned by SpaceX/Seattle (US) in LEO that was launched on Thu, 02 Feb 2023 UTC via an FALCON 9 launch vehicle from the Air Force Eastern Test Range (AFETR). Payload-class satellites include a variety of spacecraft equipped with specific instruments for various scientific and technological missions. These include communications satellites like Starlink; space stations such as the ISS; scientific satellites like the Hubble; Earth observation satellites from companies like Planet Labs, Umbra, and HawkEye 360; GPS; miniature CubeSats for education and research; and military/defense satellites.

Loading next visibility...
Identifier
55471, 2023-015Y
Orbit
LEO
Country
Flag of USUS
Related business
Manufacturer
SpaceX/Seattle
Mission
Operational Commercial Communications
Bus & Motor
STARLINK, Unknown motor
Mass
305 kg wet, ~290 kg dry
Launch date (UTC)
2023-02-02 (3 years ago)
Launch vehicle
FALCON 9
Launch site
Air Force Eastern Test Range (AFETR)
Object type
Payload
Rocket body
Debris
Shape & HBR
Box + 1 Pan, 10.1 m
Radar Cross Section
13.562 m², Large (>1 m²)

Expand to show TLE details & history
Last TLE update: 22 hours ago

TLE from 22 hours ago
0 STARLINK-5711
1 55471U 23015Y   25303.30462178 -.00000684  00000-0 -35557-4 0  9996
2 55471  43.0043 314.2107 0001268 266.1844  93.8853 15.02525381151144
Epoch: 2025-10-30T07:18Z
TLE epoch observation values (Epoch: 2025-10-30T07:18:39.321Z)
Latitude
-0.00006°
Longitude
165.68148°
Altitude
558.95 km
Speed
7.584 km/s
True Right ascension
20h 56m 50s
True Declination
0° 00' 00"
Sunlit
Object was in daylight at epoch
Visualization orbit readout
Latitude
Unknown
Longitude
Unknown
Altitude
Unknown
Speed
Unknown
Apparent Right ascension
Unknown
Apparent Declination
Unknown
Sunlit
N/A
Visualization observer readout
Local Sidereal Time
01:10:59
Azimuth
Unknown
Elevation
Unknown
Doppler factor
Unknown
Orbital elements
Apogee altitude
561.915 km
Perigee altitude
560.156 km
Semi-major axis
6,939.172 km
Eccentricity
0.00013
Inclination
43.0043°
RAAN
314.2107°
Arg. of periapsis
266.1844°
True anomaly
93.8998°
Mean anomaly
93.8853°
Eccentric anomaly
93.89255°
Mean motion
3.75476 °/min
Orbital period
95.88 mins
BSTAR
-0.000035557
Loading maneuver chart data...
Computing Atmospheric mass density...
Loading historical data...
Loading historical data...
Loading historical data...
Loading historical data...
Loading historical data...
Loading historical data...
Loading historical data...

Documentation

Showing up to 5 results
|